Torna al catalogo

STARLINK-3913

AttivoComunicazioniVLEO
NORAD 52485·PAYLOAD·🇺🇸 United States

Lanciato May 6, 2022 da Cape Canaveral Space Force Station

Loading…

Prossimi Passaggi (prossime 24 ore)

TLE

AggiornatoSource: CelesTrak SupGP

Epoca: Sep 14, 2026, 21:41 UTC

1 52485C 22049AL  26257.90395833  .00045716  00000+0  13875-2 0  2578
2 52485  53.1580 269.9072 0001264  85.7004   9.5747 15.33519602    18

Traccia STARLINK-3913 in tempo reale con AllMySat

Download on the App Store